Погода в Комрате

Погода в Комрате : погода сейчас, прогноз погоды и архив. Всё, что Вы хотите узнать о погоде в Комрате!

Поиск расширенной информации на нашем сайте:

Другие новости

Новости СМИ2

Главная страница сайта

Новости сайта

03.07.2017

Напоминаем, что на нашем специализированном сайте Метеоцентр.Азия вы можете получить высокодетализированные автоматические прогнозы погоды по пунктам России, СНГ и мира в авиационном формате (включающие направление и скорость ветра, видимость, явления погоды, количество и форму облачности, нижнюю и верхнюю границу облачности).


Погода в Комрате - сегодня

Время (UTC), дата Ветер
(°,м/с) 
Видим.   Явления Облачность Т
(°С)
Тd
(°С)
f(%) Тe
(°С)
Pmin
(гПа)
dP
(гПа)
Po
(мм)
O2
(г/м3)
Тmin Tmax R s Состояние
почвы
15 17.07.18 270 (З) 20000 м  {ливн. осадки}  8/8 600 м кучево-дожд. 
[Cb calv]
+25.9 +14.4 49 +34  1003  -0.6  741  270           
18 17.07.18 260 (З) 20000 м  {ливн. осадки}  6/0 средняя 
[Ac trans]
+21.8 +13.2 58 +28  1003  -0.3  741  274    +28.6  0.0     
21 17.07.18 320 (СЗ) 10 км    ясно 
+19 +13 68 +27  1003.5  0.4  741  277           
00 18.07.18 тихо ()   10 км    ясно 
+18.5 +12.9 70 +24  1003  -0.5  740  277           
03 18.07.18 330 (СЗ) 20000 м  гроза, пыльная буря  3/0 средняя 
[Ac trans]
+16.5 +14.2 86 +26  1003.1  740  278           
06 18.07.18 300 (СЗ) 20000 м    3/3 330 м средняя 
[Ac trans]
+23.3 +16.1 64 +34  1003.1  0.3  741  272  +16.2         
09 18.07.18 270 (З) 20000 м    6/4 600 м средняя 
[Cu Sc|Ac trans]
+27.4 +15.4 48 +37  1001.9  -0.9  740  268           
12 18.07.18 250 (З) 20000 м  гроза без осадков  8/6 600 м кучево-дожд., верхняя 
[Cb cap|Ci sp]
+29.2 +15.4 43 +39  1000.9  -0.9  739  266           
15 18.07.18 150 (ЮВ) 20000 м  гроза без осадков{ливн. осадки}  9/8 600 м кучево-дожд., верхняя 
[Cb cap|Ci sp]
+23.5 +18.8 75 +40  1001.4  0.2  740  270           
18 18.07.18 220 (ЮЗ) 20000 м  {гроза, ливн. осадки}  8/8 600 м 
[Sc diur, vesp]
+20.6 +16.6 78 +33  1002.6  740  274    +2.9  10     
21 18.07.18 340 (С) 10 км  гроза, ливневой дождь  10/10 600 м кучево-дожд. 
[Cb cap]
+18.8 +16 84 +31  1001.8  -0.9  740  275           
00 19.07.18 290 (З) 10 км  гроза, ливневой дождь  10/10 600 м кучево-дожд. 
[Cb cap]
+17.8 +16.8 94 +30  1002.5  0.7  740  276           
03 19.07.18 260 (З) 20000 м  {ливн. осадки}  6/4 600 м кучево-дожд., средняя 
[Cb calv|Ac trans]
+17.6 +17.3 98 +32  1001.8  -0.7  740  276           
06 19.07.18 300 (СЗ) 20000 м  {гроза, ливн. осадки}  9/9 600 м кучево-дожд. 
[Cb calv]
+19.8 +18.1 90 +36  1002.2  0.5  740  274  +1.7       
09 19.07.18 тихо ()   20000 м    8/8 600 м кучево-дожд. 
[Cb calv]
+22.3 +17.9 76 +37  1002.9  0.8  741  272           
12 19.07.18 350 (С) 20000 м    6/6 600 м кучево-дожд. 
[Cb calv]
+26.8 +15.8 51 +37  1002.4  -0.3  740  268           
15 19.07.18 340 (С) 20000 м    3/3 600 м верхняя 
[Cu Sc|Ci sp]
+26.9 +15.9 51 +38  1003.1  0.7  741  268           
18 19.07.18 320 (СЗ) 20000 м    6/0 450 м верхняя 
[Ci sp]
+22.6 +18.8 79 +39  1003.9  0.6  741  271    +28       
21 19.07.18 290 (З) 10 км    4/0 верхняя 
[Ci sp]
+22.1 +19.3 84 +40  1004.8  0.9  742  272           
00 20.07.18 320 (СЗ) 10 км    6/0 верхняя 
[Ci sp]
+20.4 +17.6 84 +34  1005.2  0.3  742  274           
03 20.07.18 310 (СЗ) 20000 м    8/3 600 м средняя 
[Sc|Ac trans]
+20 +18.7 92 +36  1005.8  0.5  743  274           
06 20.07.18 310 (СЗ) 20000 м    8/8 500 м средняя 
[Ac As]
+22.4 +18.6 79 +38  1006.5  0.8  743  272  +19.6         
09 20.07.18 310 (СЗ) 20000 м    6/3 600 м верхняя 
[Cu hum|Cc]
+24.4 +18.3 69 +40  1006.9  0.5  744  271           
12 20.07.18 300 (СЗ) 20000 м    3/3 600 м 
[Cu med, cong]
+27.4 +18.7 59 +43  1006.4  -0.3  743  268           
15 20.07.18 300 (СЗ) 20000 м    6/0 верхняя 
[Ci]
+27.4 +16.1 50 +38  1006.2  -0.2  743  269           
Время (UTC), дата Ветер
(°,м/с) 
Видим.   Явления Облачность Т
(°С)
Тd
(°С)
f(%) Тe
(°С)
Pmin
(гПа)
dP
(гПа)
Po
(мм)
O2
(г/м3)
Тmin Tmax R s Состояние
почвы

Для получения пояснительной информации подведите курсор к названию столбца.

ПОГОДА в Комрате - архив

Всё, что Вы хотите узнать о погоде в Комрате - удобно и подробно!

Выберите нужную дату (начиная с 1 января 2015* года) и нажмите кнопку "Найти".
Будут отображены архивные сводки погоды по пункту Комрат, начиная с указанной даты.


Отображать данные в формате CSV (для использования в таблицах Excel)


Внимание! Наш архив погоды предназначен исключительно для личного некоммерческого использования в познавательных целях. Если Вам необходимы официальные справки о состоянии погоды (для производственных, юридических, коммерческих и т.п. целей), обращайтесь в органы Росгидромета.

*Примечание: данная дата относится к архиву по метеостанциям СССР (Россия, СНГ, Балтия).
Архив по метеостанциям Зарубежной Европы и Азии (кроме Китая) хранится 10 дней, по другим регионам земного шара (Китай, Африка, Америка, Австралия, Океания) - 1 день.

Комрат - район местоположения метеостанции


Название, широта, долгота, высота метеостанции:
Комрат 46.3°ш. 28.6°д. 133 м над ур. моря [Молдавия]

Дополнительная информация

В oтличие oт бoльшинства пoгoдных сайтoв мы публикуем пoдрoбную метеoинфoрмацию в детальнoм прoфессиoнальнoм фoрмате.

Характеристики температуры и влажнoсти вoздуха измеряются на высoте 2 м в тени вдали oт зданий и деревьев.
Скoрoсть ветра измеряется на высoте 10 м (на урoвне рoста челoвека скoрoсть ветра ниже в 1.5-2 раза). Если метеoстанция нахoдится в гoрoде или в лесу, тo скoрoсть ветра занижена на 2-4 м/с пo сравнению с oткрытым местoм. Скoрoсть ветра над акватoриями крупных рек и oзёр, а также на вершинах хoлмoв на 2-5 м/с выше, чем в oбычных услoвиях.
Атмoсфернoе давление в разных тoчках местнoсти мoжет значительнo oтличаться oт давления на метеoстанции, в зависимoсти oт услoвий рельефа (при пoдъёме на 10 м давление пoнижается примернo на 1 мм рт.ст.).